Regional Weather Roundup
Issued by NWS Goodland, KS

Home | Current Version | Previous Version | Graphics & Text | Print | Product List | Glossary On
Versions: 1 2 3 4 5 6 7 8 9 10 11 12 13 14 15 16 17 18 19 20 21 22 23 24 25 26 27 28 29 30 31 32 33 34 35 36 37 38 39 40 41 42 43 44 45 46 47 48 49 50
000
ASUS43 KGLD 191459
RWRGLD

GOODLAND FORECAST AREA HOURLY WEATHER ROUNDUP
NATIONAL WEATHER SERVICE GOODLAND KS
900 AM MDT TUE SEP 19 2017

...OFFICIAL OBSERVATIONS...

CITY           SKY/WX    TMP DP  RH WIND       PRES   REMARKS
GOODLAND KS    SUNNY     66  53  63 S10       29.70F
HILL CITY KS   SUNNY     75  64  68 S10G22    29.71F
IMPERIAL NEB   CLOUDY    68  55  63 S10       29.65F
MCCOOK NEB       N/A     72  64  76 S10       29.67S
AKRON CO       CLOUDY    72  26  18 SW13      29.69F
BURLINGTON CO  SUNNY     70  41  34 SW13      29.73S
LIMON CO         N/A    N/A N/A N/A MISG      29.77F
$$

...UNOFFICIAL OBSERVATIONS...

CITY           SKY/WX    TMP DP  RH WIND       PRES   REMARKS
LENORA KS        N/A     72  32  23 MISG        N/A
NORTON KS      MOSUNNY   73  59  60 S16       29.69S
SHARON SPRINGS   N/A     65  58  79 S9          N/A
TRENTON NEB      N/A     71  32  23 SW8         N/A
KIT CARSON CO    N/A     59  42  53 MISG        N/A
YUMA CO        FAIR      68  25  19 S5        29.67S
$$




USA.gov is the U.S. government's official web portal to all federal, state and local government web resources and services.